Regional Weather Roundup
Issued by NWS

Home | Current Version | Previous Version | Text Only | Print | Product List | Glossary Off
Versions: 1 2 3 4 5 6 7 8 9 10 11 12 13 14 15 16 17 18 19 20 21 22 23 24 25 26 27 28 29 30 31 32 33 34 35 36 37 38 39 40 41 42 43 44 45 46 47 48 49 50

000
ASUS45 KTFX 041404
RWRMT
MONTANA REGIONAL WEATHER ROUNDUP
NATIONAL WEATHER SERVICE GREAT FALLS MT
800 AM MDT FRI SEP 04 2015

NOTE: "FAIR" INDICATES FEW OR NO CLOUDS BELOW 12000 FEET WITH NO
SIGNIFICANT WEATHER AND/OR OBSTRUCTIONS TO VISIBILITY.

MTZ001>007-043-041500-
WEST OF THE DIVIDE

CITY           SKY/WX    TMP DP  RH WIND       PRES   REMARKS
KALISPELL      PTSUNNY   46  43  89 NW3       29.99R
MISSOULA       CLOUDY    42  42 100 W3        29.98S
BUTTE          CLOUDY    45  42  89 W3        30.00R
MULLAN PASS    CLEAR     36  33  89 CALM      29.98R
DEER LODGE       N/A     45  45 100 CALM      30.02R
EUREKA           N/A     45  43  93 NW3       30.03
HAMILTON         N/A     45  45 100 NW5       29.97R
LIBBY            N/A     39  37  93 CALM      30.02R
$$

MTZ008-052>055-041500-
SOUTHWEST MONTANA

CITY           SKY/WX    TMP DP  RH WIND       PRES   REMARKS
BOZEMAN        CLOUDY    49  46  90 SW3       29.96S
DILLON         CLOUDY    48  44  86 CALM      29.96R
W YELLOWSTONE  SUNNY     37  37 100 CALM      29.98R
$$

MTZ009-010-012-014-046-048-049-054-041500-
EAST SLOPES AND CENTRAL MONTANA

CITY           SKY/WX    TMP DP  RH WIND       PRES   REMARKS
CUT BANK       LGT RAIN  48  47  96 CALM      29.99F FOG
GREAT FALLS    CLOUDY    48  47  96 NE7       29.96F
MALMSTROM AFB  CLOUDY    49  49  99 NE8       29.97S
HELENA         CLOUDY    51  47  86 SW6       29.97S
$$

MTZ011-013-016-021-045-047-050-051-041500-
NORTH CENTRAL MONTANA

CITY           SKY/WX    TMP DP  RH WIND       PRES   REMARKS
HAVRE          CLOUDY    51  48  89 E8        29.98R
LEWISTOWN      CLOUDY    49  44  83 NE6       30.00R
N BAR RANCH    CLOUDY    48  43  81 N6        30.02R
CHINOOK          N/A     52  48  87 CALM      29.99R
FORT BENTON      N/A     54  48  82 CALM      29.99R
$$

MTZ017>020-022>027-061-062-041500-
NORTHEAST MONTANA

CITY           SKY/WX    TMP DP  RH WIND       PRES   REMARKS
GLASGOW        MOSUNNY   55  41  59 N20G25    29.95R
JORDAN           N/A     54  42  64 N16       29.92F
SIDNEY         CLOUDY    61  48  63 NW16        N/A
WOLF POINT     CLOUDY    61  45  55 N9        29.93R
PLENTYWOOD       N/A     55  48  76 N14       29.92R
POPLAR           N/A     59  46  63 N13       29.91R
$$

MTZ028>42-056>058-041500-
SOUTHCENTRAL AND SOUTHEAST MONTANA

CITY           SKY/WX    TMP DP  RH WIND       PRES   REMARKS
BAKER          CLOUDY    64  58  80 NW8       29.87R
BILLINGS       MOSUNNY   52  45  77 N10       29.97R
LIVINGSTON     CLOUDY    50  45  83 E9        29.97R
MILES CITY     CLOUDY    60  45  57 N12       29.88R
FORSYTH          N/A     57  43  58 W6        29.90R
$$

REGIONAL REPORTS...DAKOTAS

CITY           SKY/WX    TMP DP  RH WIND       PRES   REMARKS
WILLISTON      CLOUDY    63  55  75 NW12      29.86R
MINOT          CLOUDY    67  59  75 N21G28    29.77R
DICKINSON      CLOUDY    65  60  84 N16       29.77F
BISMARCK       CLOUDY    72  70  93 E3        29.74S
GRAND FORKS    CLOUDY    74  70  87 SE14      29.76F
FARGO          MOSUNNY   78  72  81 SE10G21   29.77R
BUFFALO SD       N/A     62  60  93 NW13      29.76S
RAPID CITY     SUNNY     64  56  75 SE3       29.81R
$$

REGIONAL REPORTS...WYOMING/IDAHO/WASHINGTON

CITY           SKY/WX    TMP DP  RH WIND       PRES   REMARKS
GILLETTE       SUNNY     61  45  55 W9        29.93R
SHERIDAN       SUNNY     59  43  55 W8        29.95R
BUFFALO WY     SUNNY     58  44  60 N9        29.98R
CODY           SUNNY     50  45  81 NE7       29.97S
YELLOWSTONE LA   N/A     41  39  93 NW3       30.05R
IDAHO FALLS    MOSUNNY   51  39  63 SW10      29.91R
SALMON         CLOUDY    46  43  87 CALM      29.98S
BOISE          PTCLDY    50  38  63 NW5       29.85S
SPOKANE        PTCLDY    44  35  70 NE5       29.96R
$$

REGIONAL REPORTS...ALBERTA

CITY           SKY/WX    TMP DP  RH WIND       PRES   REMARKS
$$

REGIONAL REPORTS...SASKATCHEWAN

CITY           SKY/WX    TMP DP  RH WIND       PRES   REMARKS
$$


USA.gov is the U.S. government's official web portal to all federal, state and local government web resources and services.